This is the latest recevied weather packets stored in our database for station/object KD9IXX-13. If no packets are shown the sender has not sent any weather packets the latest 10 day(s).
| Time | Temp. | Humidity | Pressure | Rain* | Wind** | Luminosity | Snow |
|---|---|---|---|---|---|---|---|
| 1777489502 | 12.78° C | 67% | 1015.3 hPa | 0 mm | - | 233 W/m² | - |
| 1777489202 | 12.78° C | 67% | 1015.4 hPa | 0 mm | - | 233 W/m² | - |
| 1777488917 | 12.78° C | 66% | 1015.4 hPa | 0 mm | - | 242 W/m² | - |
| 1777488602 | 12.78° C | 67% | 1015.2 hPa | 0 mm | - | 239 W/m² | - |
| 1777488302 | 12.78° C | 67% | 1015.2 hPa | 0 mm | - | 235 W/m² | - |
| 1777488002 | 12.78° C | 66% | 1015.2 hPa | 0 mm | - | 211 W/m² | - |
| 1777487703 | 12.78° C | 66% | 1015.2 hPa | 0 mm | - | 192 W/m² | - |
| 1777487402 | 12.78° C | 66% | 1015 hPa | 0 mm | - | 218 W/m² | - |
| 1777487102 | 13.33° C | 66% | 1014.8 hPa | 0 mm | - | 278 W/m² | - |
| 1777486802 | 13.33° C | 64% | 1015 hPa | 0 mm | - | 310 W/m² | - |
| 1777486502 | 13.33° C | 64% | 1014.8 hPa | 0 mm | - | 282 W/m² | - |
| 1777486202 | 13.33° C | 66% | 1014.8 hPa | 0 mm | - | 246 W/m² | - |
| 1777485902 | 13.33° C | 65% | 1014.8 hPa | 0 mm | - | 245 W/m² | - |
| 1777485602 | 13.89° C | 64% | 1014.6 hPa | 0 mm | - | 660 W/m² | - |
| 1777485302 | 13.33° C | 66% | 1014.6 hPa | 0 mm | - | 272 W/m² | - |
| 1777485002 | 13.33° C | 66% | 1014.7 hPa | 0 mm | - | 184 W/m² | - |
| 1777484703 | 13.89° C | 63% | 1014.7 hPa | 0 mm | - | 151 W/m² | - |
| 1777484402 | 13.89° C | 64% | 1014.5 hPa | 0 mm | - | 274 W/m² | - |
| 1777484102 | 13.89° C | 63% | 1014.8 hPa | 0 mm | - | 314 W/m² | - |
| 1777483802 | 13.89° C | 64% | 1014.6 hPa | 0 mm | - | 257 W/m² | - |
| 1777483502 | 13.89° C | 64% | 1014.6 hPa | 0 mm | - | 271 W/m² | - |
| 1777483202 | 13.33° C | 65% | 1014.9 hPa | 0 mm | - | 225 W/m² | - |
| 1777482901 | 13.33° C | 64% | 1014.7 hPa | 0 mm | - | 187 W/m² | - |
| 1777482602 | 14.44° C | 65% | 1014.5 hPa | 0 mm | - | 157 W/m² | - |
| 1777482302 | 14.44° C | 63% | 1014.7 hPa | 0 mm | - | 733 W/m² | - |
* Rain latest hour (hover to see other rain measurements)
** Current wind speed in m/s (hover to see current wind gust speed)